Weather Roundup
Issued by NWS

Home | Current Version | Previous Version | Text Only | Print | Product List | Glossary On
Versions: 1 2 3 4 5 6 7 8 9 10 11 12 13 14 15 16 17 18 19 20 21 22 23 24 25 26 27 28 29 30 31 32 33 34 35 36 37 38 39 40 41 42 43 44 45 46 47 48 49 50
961
NZUS93 KARX 270810
HRRWXR

CURRENT HOURLY OBSERVATIONS ACROSS
MUCH OF THE UPPER MISSISSIPPI VALLEY
NATIONAL WEATHER SERVICE LA CROSSE WI
300 AM CDT SAT MAY 27 2017


...SOUTHEAST MINNESOTA...


CITY           SKY/WX    TMP DP  RH WIND       PRES   REMARKS
ROCHESTER      CLEAR     56  51  84 W6        29.88S
ROCHESTER/MAYO FAIR      61  50  66 W3        29.87S
WINONA         CLEAR     59  55  88 CALM      29.86S
AUSTIN         CLEAR     52  50  93 CALM      29.87S FOG
ALBERT LEA     CLEAR     54  52  94 CALM      29.88S
DODGE CENTER   CLEAR     54  46  76 W6        29.87S
PRESTON        CLEAR     56  55  93 SW5       29.88R
OWATONNA       CLEAR     52  48  87 CALM      29.88R
FARIBAULT      CLEAR     52  48  87 CALM      29.88R
$$

...ELSEWHERE IN MINNESOTA...


CITY           SKY/WX    TMP DP  RH WIND       PRES   REMARKS
MINNEAPOLIS    CLEAR     61  46  57 CALM      29.85S
INTNL FALLS    CLEAR     52  43  71 W6        29.76F
DULUTH         CLEAR     53  47  79 NW6       29.81R
RED WING       CLEAR     54  50  87 NW3       29.84S
REDWOOD FALLS  PTCLDY    55  45  68 W3        29.89R
MANKATO        CLEAR     57  47  69 W6        29.89
WORTHINGTON    CLEAR     52  43  71 NW3       29.92S
FAIRMONT       CLEAR     55  45  68 NW9       29.91R
$$

...SOUTHWEST WISCONSIN...


CITY           SKY/WX    TMP DP  RH WIND       PRES   REMARKS
LA CROSSE      CLOUDY    60  58  92 S7        29.86F
PRAIRIE DU CHI CLEAR     54  52  95 CALM      29.88S
BOSCOBEL       FOG       53  52  96 CALM      29.88F VSB 1/4
LONE ROCK      FOG       52  51  97 CALM      29.88R VSB<1/4
PLATTEVILLE    CLEAR     54  54 100 CALM      29.89R
FORT MC COY    CLOUDY    51  50  99 CALM      29.87F
CAMP DOUGLAS   PTCLDY    50  50 100 E6        29.87S FOG
MAUSTON-NEW LI SUNNY     53  52  98 CALM      29.87S FOG
VIROQUA        CLOUDY    56  55  97 SW5       29.89S
WIS DELLS      CLEAR     52  50  93 W3        29.88R FOG
$$

...ELSEWHERE IN WISCONSIN...


CITY           SKY/WX    TMP DP  RH WIND       PRES   REMARKS
MILWAUKEE      CLOUDY    53  52  96 CALM      29.88S
MADISON        FOG       49  48  97 CALM      29.87S VSB 1/4
GREEN BAY      CLEAR     56  55  97 SW3       29.87F
EAU CLAIRE     CLOUDY    56  55  97 CALM      29.83F
BLACK RVR FLS  FAIR      55  55 100 CALM      29.85F FOG
MEDFORD        MOCLDY    58  54  87 S6        29.86S
WAUSAU         CLOUDY    56  53  90 CALM      29.86R
WIS RAPIDS     PTCLDY    51  51 100 CALM      29.89R FOG
MARSHFIELD     CLOUDY    55  52  89 SW6       29.86S
RICE LAKE      FOG       53  52  97 CALM      29.85S VSB 1/4
$$

...NORTHEAST IOWA...


CITY           SKY/WX    TMP DP  RH WIND       PRES   REMARKS
WATERLOO       FOG       51  50  96 E3        29.88R VSB 1/4
DUBUQUE        CLEAR     53  52  96 CALM      29.88S FOG
DECORAH        CLOUDY    57  57 100 CALM      29.87F
MASON CITY     CLEAR     53  47  79 W7        29.90R
CHARLES CITY   CLEAR     55  55 100 S6        29.88S FOG
OELWEIN        FOG       57  57 100 CALM      29.89S VSB<1/4
$$

...ELSEWHERE IN IOWA...


CITY           SKY/WX    TMP DP  RH WIND       PRES   REMARKS
DES MOINES     MOCLDY    63  60  90 NE3       29.87R
IOWA CITY      FOG       54  53  97 CALM      29.87S VSB 3/4
FORT DODGE     CLEAR     52  45  76 CALM      29.90S
MARSHALLTOWN   FOG       55  55 100 CALM      29.87S VSB 3/4
CEDAR RAPIDS   FOG       53  53 100 CALM      29.86S VSB 1/4
$$

...NORTHERN ILLINOIS...


CITY           SKY/WX    TMP DP  RH WIND       PRES   REMARKS
CHICAGO-OHARE  PTCLDY    54  51  90 N6        29.86S
CHICAGO-MIDWAY MOCLDY    57  54  89 NE5       29.85F
MOLINE         CLOUDY    59  56  89 E8        29.86F FOG
ROCKFORD       PTCLDY    52  51  97 NE6       29.90S FOG
PEORIA         FOG       59  59 100 N6        29.85F VSB 1/2
$$

NOTE: "FAIR" INDICATES FEW OR NO CLOUDS BELOW 12,000 FEET WITH NO
SIGNIFICANT WEATHER AND/OR OBSTRUCTIONS TO VISIBILITY. WIND
SPEEDS ARE IN MILES-PER-HOUR.




USA.gov is the U.S. government's official web portal to all federal, state and local government web resources and services.